When you browse on this site, cookies collect data to enhance your experience and personalize the content and advertising you see.
Visit our Privacy Policy to learn more. By continuing to use the site, you agree to this use of cookies and data.
  • In Hungary
  • List of Countries
  • For 7 days
  • Water Temperature
  • Weather Map
  • News
  • Weather Widgets
  • user-avatar
    Login

    Hourly Weather Tavezhnya

    Today, 17 November, Sunday

    Time Temperature Precipitation Wind Pressure Humidity
    00:00 +3°C° 0 mm 3 mps 761 mmHg 80%
    01:00 +3°C° 0 mm 3 mps 761 mmHg 82%
    02:00 +3°C° 0 mm 2 mps 761 mmHg 87%
    03:00 +3°C° 0 mm 2 mps 761 mmHg 88%
    04:00 +3°C° 0 mm 2 mps 761 mmHg 90%
    05:00 +2°C° 0 mm 2 mps 761 mmHg 91%
    06:00 +1°C° 0 mm 3 mps 761 mmHg 91%
    07:00 +2°C° 0 mm 3 mps 762 mmHg 90%
    08:00 +2°C° 0 mm 3 mps 762 mmHg 89%
    09:00 +3°C° 0 mm 3 mps 762 mmHg 83%
    10:00 +4°C° 0 mm 3 mps 762 mmHg 76%
    11:00 +7°C° 0 mm 3 mps 762 mmHg 70%
    12:00 +7°C° 0 mm 3 mps 761 mmHg 67%
    13:00 +8°C° 0 mm 3 mps 761 mmHg 64%
    14:00 +8°C° 0 mm 3 mps 761 mmHg 61%
    15:00 +7°C° 0 mm 3 mps 761 mmHg 66%
    16:00 +5°C° 0 mm 3 mps 761 mmHg 71%
    17:00 +4°C° 0 mm 3 mps 761 mmHg 76%
    18:00 +4°C° 0 mm 3 mps 761 mmHg 78%
    19:00 +3°C° 0 mm 3 mps 761 mmHg 80%
    20:00 +3°C° 0 mm 3 mps 761 mmHg 81%
    21:00 +3°C° 0 mm 3 mps 761 mmHg 83%
    22:00 +3°C° 0 mm 3 mps 760 mmHg 84%
    23:00 +3°C° 0 mm 3 mps 760 mmHg 85%

    Tomorrow, 18 November, Monday

    Time Temperature Precipitation Wind Pressure Humidity
    00:00 +3°C° 0 mm 3 mps 760 mmHg 87%
    01:00 +2°C° 0 mm 3 mps 760 mmHg 88%
    02:00 +2°C° 0 mm 3 mps 760 mmHg 89%
    03:00 +2°C° 0 mm 3 mps 760 mmHg 90%
    04:00 +2°C° 0 mm 3 mps 759 mmHg 91%
    05:00 +2°C° 0 mm 3 mps 759 mmHg 91%
    06:00 +2°C° 0 mm 3 mps 759 mmHg 91%
    07:00 +2°C° 0 mm 3 mps 760 mmHg 91%
    08:00 +2°C° 0 mm 3 mps 760 mmHg 90%
    09:00 +4°C° 0 mm 3 mps 760 mmHg 83%
    10:00 +5°C° 0 mm 3 mps 759 mmHg 77%
    11:00 +7°C° 0 mm 4 mps 759 mmHg 70%
    12:00 +8°C° 0 mm 3 mps 759 mmHg 67%
    13:00 +9°C° 0 mm 3 mps 759 mmHg 65%
    14:00 +9°C° 0 mm 3 mps 758 mmHg 62%
    15:00 +8°C° 0 mm 3 mps 758 mmHg 68%
    16:00 +7°C° 0 mm 3 mps 758 mmHg 74%
    17:00 +6°C° 0 mm 2 mps 758 mmHg 80%
    18:00 +5°C° 0 mm 2 mps 758 mmHg 82%
    19:00 +5°C° 0 mm 2 mps 759 mmHg 85%
    20:00 +4°C° 0 mm 2 mps 759 mmHg 87%
    21:00 +4°C° 0 mm 2 mps 759 mmHg 87%
    22:00 +4°C° 0 mm 2 mps 759 mmHg 88%
    23:00 +4°C° 0 mm 2 mps 759 mmHg 88%

    Day after tomorrow, 19 November, Tuesday

    Time Temperature Precipitation Wind Pressure Humidity
    00:00 +3°C° 0 mm 2 mps 759 mmHg 89%
    01:00 +4°C° 0 mm 1 mps 759 mmHg 89%
    02:00 +4°C° 0 mm 1 mps 759 mmHg 89%
    03:00 +4°C° 0 mm 1 mps 759 mmHg 90%
    04:00 +4°C° 0 mm 1 mps 759 mmHg 90%
    05:00 +3°C° 0 mm 1 mps 759 mmHg 91%
    06:00 +4°C° 0 mm 1 mps 759 mmHg 91%
    07:00 +4°C° 0 mm 1 mps 759 mmHg 91%
    08:00 +3°C° 0 mm 2 mps 760 mmHg 91%
    09:00 +5°C° 0 mm 2 mps 759 mmHg 83%
    10:00 +7°C° 0 mm 1 mps 759 mmHg 75%
    11:00 +9°C° 0 mm 1 mps 759 mmHg 68%
    12:00 +9°C° 0 mm 1 mps 759 mmHg 65%
    13:00 +10°C° 0 mm 1 mps 759 mmHg 62%
    14:00 +11°C° 0 mm 1 mps 759 mmHg 59%
    15:00 +9°C° 0 mm 1 mps 759 mmHg 65%
    16:00 +8°C° 0 mm 1 mps 759 mmHg 70%
    17:00 +7°C° 0 mm 1 mps 759 mmHg 76%
    18:00 +6°C° 0 mm 2 mps 759 mmHg 78%
    19:00 +5°C° 0 mm 2 mps 759 mmHg 80%
    20:00 +5°C° 0 mm 2 mps 759 mmHg 82%
    21:00 +4°C° 0 mm 2 mps 759 mmHg 84%
    22:00 +4°C° 0 mm 2 mps 759 mmHg 85%
    23:00 +4°C° 0 mm 2 mps 759 mmHg 87%

    20 November, Wednesday

    Time Temperature Precipitation Wind Pressure Humidity
    00:00 +3°C° 0 mm 2 mps 760 mmHg 87%
    01:00 +3°C° 0 mm 2 mps 760 mmHg 88%
    02:00 +3°C° 0 mm 2 mps 760 mmHg 89%
    03:00 +2°C° 0 mm 3 mps 760 mmHg 89%
    04:00 +1°C° 0 mm 3 mps 760 mmHg 90%
    05:00 +1°C° 0 mm 3 mps 760 mmHg 91%
    06:00 +1°C° 0 mm 3 mps 760 mmHg 89%
    07:00 0°C° 0 mm 4 mps 760 mmHg 88%
    08:00 0°C° 0 mm 4 mps 761 mmHg 87%
    09:00 +3°C° 0 mm 4 mps 761 mmHg 79%
    10:00 +3°C° 0 mm 5 mps 761 mmHg 72%
    11:00 +5°C° 0 mm 5 mps 761 mmHg 65%
    12:00 +5°C° 0 mm 5 mps 761 mmHg 62%
    13:00 +6°C° 0 mm 5 mps 761 mmHg 60%
    14:00 +5°C° 0 mm 6 mps 761 mmHg 58%
    15:00 +4°C° 0 mm 6 mps 761 mmHg 63%
    16:00 +3°C° 0 mm 5 mps 761 mmHg 67%
    17:00 +3°C° 0 mm 5 mps 761 mmHg 72%
    18:00 +3°C° 0 mm 6 mps 762 mmHg 73%
    19:00 +3°C° 0 mm 7 mps 762 mmHg 74%
    20:00 +3°C° 0 mm 7 mps 763 mmHg 76%
    21:00 +3°C° 0 mm 7 mps 763 mmHg 72%
    22:00 +2°C° 0 mm 7 mps 763 mmHg 68%
    23:00 0°C° 0 mm 7 mps 764 mmHg 64%

    21 November, Thursday

    Time Temperature Precipitation Wind Pressure Humidity
    00:00 -1°C° 0 mm 7 mps 764 mmHg 64%
    01:00 -2°C° 0 mm 7 mps 764 mmHg 64%
    02:00 -3°C° 0 mm 7 mps 764 mmHg 64%
    03:00 -4°C° 0 mm 7 mps 764 mmHg 62%
    04:00 -6°C° 0 mm 7 mps 765 mmHg 61%
    05:00 -7°C° 0 mm 7 mps 765 mmHg 59%
    06:00 -8°C° 0 mm 7 mps 765 mmHg 57%
    07:00 -8°C° 0 mm 7 mps 766 mmHg 55%
    08:00 -10°C° 0 mm 8 mps 766 mmHg 54%
    09:00 -8°C° 0 mm 8 mps 766 mmHg 50%
    10:00 -7°C° 0 mm 8 mps 766 mmHg 47%
    11:00 -6°C° 0 mm 8 mps 766 mmHg 43%
    12:00 -6°C° 0 mm 7 mps 766 mmHg 42%
    13:00 -6°C° 0 mm 7 mps 766 mmHg 40%
    14:00 -6°C° 0 mm 7 mps 766 mmHg 39%
    15:00 -6°C° 0 mm 7 mps 766 mmHg 42%
    16:00 -7°C° 0 mm 7 mps 766 mmHg 44%
    17:00 -8°C° 0 mm 7 mps 766 mmHg 47%
    18:00 -8°C° 0 mm 7 mps 766 mmHg 47%
    19:00 -8°C° 0 mm 7 mps 767 mmHg 48%
    20:00 -9°C° 0 mm 7 mps 767 mmHg 48%
    21:00 -9°C° 0 mm 7 mps 767 mmHg 46%
    22:00 -9°C° 0 mm 6 mps 767 mmHg 43%
    23:00 -10°C° 0 mm 6 mps 767 mmHg 41%

    22 November, Friday

    Time Temperature Precipitation Wind Pressure Humidity
    00:00 -10°C° 0 mm 6 mps 767 mmHg 41%
    01:00 -10°C° 0 mm 6 mps 767 mmHg 41%
    02:00 -11°C° 0 mm 6 mps 767 mmHg 41%
    03:00 -11°C° 0 mm 6 mps 767 mmHg 41%
    04:00 -11°C° 0 mm 6 mps 767 mmHg 42%
    05:00 -11°C° 0 mm 6 mps 767 mmHg 42%
    06:00 -12°C° 0 mm 7 mps 767 mmHg 42%
    07:00 -12°C° 0 mm 7 mps 767 mmHg 43%
    08:00 -12°C° 0 mm 7 mps 768 mmHg 43%
    09:00 -9°C° 0 mm 7 mps 767 mmHg 42%
    10:00 -8°C° 0 mm 7 mps 767 mmHg 41%
    11:00 -7°C° 0 mm 8 mps 767 mmHg 40%
    12:00 -6°C° 0 mm 8 mps 767 mmHg 38%
    13:00 -6°C° 0 mm 8 mps 767 mmHg 36%
    14:00 -6°C° 0 mm 8 mps 766 mmHg 35%
    15:00 -6°C° 0 mm 7 mps 766 mmHg 35%
    16:00 -6°C° 0 mm 6 mps 766 mmHg 35%
    17:00 -6°C° 0 mm 6 mps 766 mmHg 34%
    18:00 -6°C° 0 mm 6 mps 766 mmHg 35%
    19:00 -6°C° 0 mm 6 mps 766 mmHg 36%
    20:00 -6°C° 0 mm 6 mps 766 mmHg 37%
    21:00 -8°C° 0 mm 6 mps 767 mmHg 38%
    22:00 -8°C° 0 mm 6 mps 767 mmHg 39%
    23:00 -8°C° 0 mm 6 mps 767 mmHg 40%
    Show more